Time,TemperatureF,DewpointF,PressureIn,WindDirection,WindDirectionDegrees,WindSpeedMPH,WindSpeedGustMPH,Humidity,HourlyPrecipIn,Conditions,Clouds,dailyrainin,SoftwareType,DateUTC
2013-09-20 00:00:00,65.2,59.6,30.02,North,8,0.0,0.0,82,0.00,,---,0.00,VWS V14.01,2013-09-20 04:00:00,
2013-09-20 00:01:00,65.3,59.7,30.02,North,8,0.0,0.0,82,0.00,,---,0.00,VWS V14.01,2013-09-20 04:01:00,
2013-09-20 00:05:00,65.0,59.7,30.02,North,8,0.0,0.0,83,0.00,,---,0.00,VWS V14.01,2013-09-20 04:05:00,
2013-09-20 00:06:00,65.2,59.9,30.02,North,8,0.0,0.0,83,0.00,,---,0.00,VWS V14.01,2013-09-20 04:06:00,
2013-09-20 00:10:00,64.8,59.5,30.02,North,8,0.0,0.0,83,0.00,,---,0.00,VWS V14.01,2013-09-20 04:10:00,
2013-09-20 00:11:00,64.8,59.5,30.02,North,8,0.0,0.0,83,0.00,,---,0.00,VWS V14.01,2013-09-20 04:11:00,
2013-09-20 00:15:00,64.7,59.4,30.03,North,8,0.0,0.0,83,0.00,,---,0.00,VWS V14.01,2013-09-20 04:15:00,
2013-09-20 00:16:00,64.7,59.4,30.03,North,8,0.0,0.0,83,0.00,,---,0.00,VWS V14.01,2013-09-20 04:16:00,
2013-09-20 00:20:00,64.5,59.2,30.03,North,8,0.0,0.0,83,0.00,,---,0.00,VWS V14.01,2013-09-20 04:20:00,
2013-09-20 00:21:00,64.5,59.2,30.03,North,8,0.0,0.0,83,0.00,,---,0.00,VWS V14.01,2013-09-20 04:21:00,
2013-09-20 00:25:00,64.5,59.6,30.03,North,8,0.0,0.0,84,0.00,,---,0.00,VWS V14.01,2013-09-20 04:25:00,
2013-09-20 00:26:00,64.5,59.6,30.03,North,8,0.0,0.0,84,0.00,,---,0.00,VWS V14.01,2013-09-20 04:26:00,
2013-09-20 00:30:00,64.3,59.4,30.03,North,8,0.0,0.0,84,0.00,,---,0.00,VWS V14.01,2013-09-20 04:30:00,
2013-09-20 00:31:00,64.3,59.4,30.03,North,8,0.0,0.0,84,0.00,,---,0.00,VWS V14.01,2013-09-20 04:31:00,
2013-09-20 00:35:00,64.5,59.6,30.03,North,8,0.0,0.0,84,0.00,,---,0.00,VWS V14.01,2013-09-20 04:35:00,
2013-09-20 00:36:00,64.5,59.6,30.03,North,8,0.0,0.0,84,0.00,,---,0.00,VWS V14.01,2013-09-20 04:36:00,
2013-09-20 00:40:00,64.5,59.6,30.03,North,8,0.0,0.0,84,0.00,,---,0.00,VWS V14.01,2013-09-20 04:40:00,
2013-09-20 00:41:00,64.5,59.6,30.03,North,8,0.0,0.0,84,0.00,,---,0.00,VWS V14.01,2013-09-20 04:41:00,
2013-09-20 00:45:00,64.7,59.8,30.02,North,8,0.0,0.0,84,0.00,,---,0.00,VWS V14.01,2013-09-20 04:45:00,
2013-09-20 00:46:00,64.7,59.8,30.02,North,8,0.0,0.0,84,0.00,,---,0.00,VWS V14.01,2013-09-20 04:46:00,
2013-09-20 00:50:00,64.7,59.4,30.02,North,8,0.0,0.0,83,0.00,,---,0.00,VWS V14.01,2013-09-20 04:50:00,
2013-09-20 00:51:00,64.7,59.4,30.02,North,8,0.0,0.0,83,0.00,,---,0.00,VWS V14.01,2013-09-20 04:51:00,
2013-09-20 00:55:00,64.7,59.4,30.02,North,8,0.0,0.0,83,0.00,,---,0.00,VWS V14.01,2013-09-20 04:55:00,
2013-09-20 00:56:00,64.7,59.4,30.02,North,8,0.0,0.0,83,0.00,,---,0.00,VWS V14.01,2013-09-20 04:56:00,
2013-09-20 01:00:00,64.8,59.5,30.02,North,8,0.0,0.0,83,0.00,,---,0.00,VWS V14.01,2013-09-20 05:00:00,
2013-09-20 01:01:00,64.8,59.5,30.02,North,8,0.0,0.0,83,0.00,,---,0.00,VWS V14.01,2013-09-20 05:01:00,
2013-09-20 01:05:00,64.8,59.5,30.02,North,8,0.0,0.0,83,0.00,,---,0.00,VWS V14.01,2013-09-20 05:05:00,
2013-09-20 01:06:00,64.8,59.5,30.02,North,8,0.0,0.0,83,0.00,,---,0.00,VWS V14.01,2013-09-20 05:06:00,
2013-09-20 01:10:00,64.8,59.5,30.02,North,8,0.0,0.0,83,0.00,,---,0.00,VWS V14.01,2013-09-20 05:10:00,
2013-09-20 01:11:00,64.8,59.5,30.02,North,8,0.0,0.0,83,0.00,,---,0.00,VWS V14.01,2013-09-20 05:11:00,
2013-09-20 01:15:00,65.0,59.7,30.03,North,8,0.0,0.0,83,0.00,,---,0.00,VWS V14.01,2013-09-20 05:15:00,
2013-09-20 01:16:00,65.0,59.7,30.03,North,8,0.0,0.0,83,0.00,,---,0.00,VWS V14.01,2013-09-20 05:16:00,
2013-09-20 01:20:00,65.0,59.7,30.03,North,8,0.0,0.0,83,0.00,,---,0.00,VWS V14.01,2013-09-20 05:20:00,
2013-09-20 01:21:00,65.0,59.7,30.03,North,8,0.0,0.0,83,0.00,,---,0.00,VWS V14.01,2013-09-20 05:21:00,
2013-09-20 01:25:00,65.2,59.9,30.03,North,8,0.0,0.0,83,0.00,,---,0.00,VWS V14.01,2013-09-20 05:25:00,
2013-09-20 01:26:00,65.2,59.9,30.03,North,8,0.0,0.0,83,0.00,,---,0.00,VWS V14.01,2013-09-20 05:26:00,
2013-09-20 01:30:00,65.2,60.2,30.03,North,8,0.0,0.0,84,0.00,,---,0.00,VWS V14.01,2013-09-20 05:30:00,
2013-09-20 01:31:00,65.2,60.2,30.03,North,8,0.0,0.0,84,0.00,,---,0.00,VWS V14.01,2013-09-20 05:31:00,
2013-09-20 01:35:00,65.2,59.9,30.03,North,8,0.0,0.0,83,0.00,,---,0.00,VWS V14.01,2013-09-20 05:35:00,
2013-09-20 01:36:00,65.2,59.9,30.03,North,8,0.0,0.0,83,0.00,,---,0.00,VWS V14.01,2013-09-20 05:36:00,
2013-09-20 01:40:00,65.3,60.0,30.03,North,8,0.0,0.0,83,0.00,,---,0.00,VWS V14.01,2013-09-20 05:40:00,
2013-09-20 01:41:00,65.3,60.0,30.03,North,8,0.0,0.0,83,0.00,,---,0.00,VWS V14.01,2013-09-20 05:41:00,
2013-09-20 01:45:00,65.5,59.9,30.03,North,8,0.0,0.0,82,0.00,,---,0.00,VWS V14.01,2013-09-20 05:45:00,
2013-09-20 01:46:00,65.3,59.7,30.03,North,8,0.0,0.0,82,0.00,,---,0.00,VWS V14.01,2013-09-20 05:46:00,
2013-09-20 01:50:00,65.5,59.9,30.03,North,8,0.0,0.0,82,0.00,,---,0.00,VWS V14.01,2013-09-20 05:50:00,
2013-09-20 01:51:00,65.5,59.9,30.03,North,8,0.0,0.0,82,0.00,,---,0.00,VWS V14.01,2013-09-20 05:51:00,
2013-09-20 01:55:00,65.5,59.9,30.03,North,8,0.0,0.0,82,0.00,,---,0.00,VWS V14.01,2013-09-20 05:55:00,
2013-09-20 01:56:00,65.5,59.9,30.03,North,8,0.0,0.0,82,0.00,,---,0.00,VWS V14.01,2013-09-20 05:56:00,
2013-09-20 02:00:00,65.6,60.0,30.03,North,8,0.0,0.0,82,0.00,,---,0.00,VWS V14.01,2013-09-20 06:00:00,
2013-09-20 02:01:00,65.6,60.0,30.03,North,8,0.0,0.0,82,0.00,,---,0.00,VWS V14.01,2013-09-20 06:01:00,
2013-09-20 02:05:00,65.6,60.0,30.03,North,8,0.0,0.0,82,0.00,,---,0.00,VWS V14.01,2013-09-20 06:05:00,
2013-09-20 02:06:00,65.6,60.0,30.03,North,8,0.0,0.0,82,0.00,,---,0.00,VWS V14.01,2013-09-20 06:06:00,
2013-09-20 02:10:00,65.6,60.0,30.03,North,8,0.0,0.0,82,0.00,,---,0.00,VWS V14.01,2013-09-20 06:10:00,
2013-09-20 02:11:00,65.6,60.3,30.03,North,8,0.0,0.0,83,0.00,,---,0.00,VWS V14.01,2013-09-20 06:11:00,
2013-09-20 02:15:00,65.6,60.3,30.03,North,8,0.0,0.0,83,0.00,,---,0.00,VWS V14.01,2013-09-20 06:15:00,
2013-09-20 02:16:00,65.6,60.3,30.03,North,8,0.0,0.0,83,0.00,,---,0.00,VWS V14.01,2013-09-20 06:16:00,
2013-09-20 02:20:00,65.6,60.0,30.03,North,8,0.0,0.0,82,0.00,,---,0.00,VWS V14.01,2013-09-20 06:20:00,
2013-09-20 02:21:00,65.6,60.3,30.03,North,8,0.0,0.0,83,0.00,,---,0.00,VWS V14.01,2013-09-20 06:21:00,
2013-09-20 02:25:00,65.6,59.6,30.03,North,8,0.0,0.0,81,0.00,,---,0.00,VWS V14.01,2013-09-20 06:25:00,
2013-09-20 02:26:00,65.6,59.6,30.03,North,8,0.0,0.0,81,0.00,,---,0.00,VWS V14.01,2013-09-20 06:26:00,
2013-09-20 02:30:00,65.8,60.2,30.03,North,8,0.0,0.0,82,0.00,,---,0.00,VWS V14.01,2013-09-20 06:30:00,
2013-09-20 02:31:00,65.8,60.2,30.03,North,8,0.0,0.0,82,0.00,,---,0.00,VWS V14.01,2013-09-20 06:31:00,
2013-09-20 02:35:00,65.8,60.2,30.03,North,8,0.0,0.0,82,0.00,,---,0.00,VWS V14.01,2013-09-20 06:35:00,
2013-09-20 02:36:00,65.8,60.2,30.03,North,8,0.0,0.0,82,0.00,,---,0.00,VWS V14.01,2013-09-20 06:36:00,
2013-09-20 02:40:00,65.8,60.2,30.03,North,8,0.0,0.0,82,0.00,,---,0.00,VWS V14.01,2013-09-20 06:40:00,
2013-09-20 02:41:00,65.8,60.2,30.03,North,8,0.0,0.0,82,0.00,,---,0.00,VWS V14.01,2013-09-20 06:41:00,
2013-09-20 02:45:00,65.6,60.3,30.03,North,8,0.0,0.0,83,0.00,,---,0.00,VWS V14.01,2013-09-20 06:45:00,
2013-09-20 02:46:00,65.6,60.3,30.03,North,8,0.0,0.0,83,0.00,,---,0.00,VWS V14.01,2013-09-20 06:46:00,
2013-09-20 02:50:00,65.5,59.9,30.03,North,8,0.0,0.0,82,0.00,,---,0.00,VWS V14.01,2013-09-20 06:50:00,
2013-09-20 02:51:00,65.5,59.9,30.03,North,8,0.0,0.0,82,0.00,,---,0.00,VWS V14.01,2013-09-20 06:51:00,
2013-09-20 02:55:00,65.5,59.9,30.03,North,8,0.0,0.0,82,0.00,,---,0.00,VWS V14.01,2013-09-20 06:55:00,
2013-09-20 02:56:00,65.5,59.9,30.03,North,8,0.0,0.0,82,0.00,,---,0.00,VWS V14.01,2013-09-20 06:56:00,
2013-09-20 03:00:00,65.5,59.9,30.02,North,8,0.0,0.0,82,0.00,,---,0.00,VWS V14.01,2013-09-20 07:00:00,
2013-09-20 03:01:00,65.5,59.9,30.02,North,8,0.0,0.0,82,0.00,,---,0.00,VWS V14.01,2013-09-20 07:01:00,
2013-09-20 03:05:00,65.5,59.5,30.02,North,8,0.0,0.0,81,0.00,,---,0.00,VWS V14.01,2013-09-20 07:05:00,
2013-09-20 03:06:00,65.5,59.5,30.02,North,8,0.0,0.0,81,0.00,,---,0.00,VWS V14.01,2013-09-20 07:06:00,
2013-09-20 03:10:00,65.5,59.5,30.02,North,8,0.0,0.0,81,0.00,,---,0.00,VWS V14.01,2013-09-20 07:10:00,
2013-09-20 03:11:00,65.5,59.5,30.02,North,8,0.0,0.0,81,0.00,,---,0.00,VWS V14.01,2013-09-20 07:11:00,
2013-09-20 03:15:00,65.5,59.2,30.02,North,8,0.0,0.0,80,0.00,,---,0.00,VWS V14.01,2013-09-20 07:15:00,
2013-09-20 03:16:00,65.5,59.2,30.02,North,8,0.0,0.0,80,0.00,,---,0.00,VWS V14.01,2013-09-20 07:16:00,
2013-09-20 03:20:00,65.6,58.2,30.02,ESE,117,0.0,2.0,77,0.00,,---,0.00,VWS V14.01,2013-09-20 07:20:00,
2013-09-20 03:21:00,65.6,58.2,30.02,ESE,117,0.0,2.0,77,0.00,,---,0.00,VWS V14.01,2013-09-20 07:21:00,
2013-09-20 03:25:00,65.8,58.0,30.02,ESE,117,0.0,0.0,76,0.00,,---,0.00,VWS V14.01,2013-09-20 07:25:00,
2013-09-20 03:26:00,65.8,58.0,30.02,ESE,117,0.0,0.0,76,0.00,,---,0.00,VWS V14.01,2013-09-20 07:26:00,
2013-09-20 03:30:00,66.0,59.0,30.01,ESE,117,0.0,0.0,78,0.00,,---,0.00,VWS V14.01,2013-09-20 07:30:00,
2013-09-20 03:31:00,66.0,59.0,30.01,ESE,117,0.0,0.0,78,0.00,,---,0.00,VWS V14.01,2013-09-20 07:31:00,
2013-09-20 03:35:00,66.0,58.2,30.01,ESE,117,0.0,1.0,76,0.00,,---,0.00,VWS V14.01,2013-09-20 07:35:00,
2013-09-20 03:36:00,66.0,58.2,30.01,ESE,117,0.0,1.0,76,0.00,,---,0.00,VWS V14.01,2013-09-20 07:36:00,
2013-09-20 03:40:00,66.0,58.2,30.01,ESE,117,0.0,0.0,76,0.00,,---,0.00,VWS V14.01,2013-09-20 07:40:00,
2013-09-20 03:41:00,66.0,58.2,30.01,ESE,117,0.0,0.0,76,0.00,,---,0.00,VWS V14.01,2013-09-20 07:41:00,
2013-09-20 03:45:00,66.0,58.2,30.01,ESE,117,0.0,0.0,76,0.00,,---,0.00,VWS V14.01,2013-09-20 07:45:00,
2013-09-20 03:46:00,66.0,58.2,30.01,ESE,117,0.0,0.0,76,0.00,,---,0.00,VWS V14.01,2013-09-20 07:46:00,
2013-09-20 03:50:00,66.0,58.2,30.01,ESE,117,0.0,0.0,76,0.00,,---,0.00,VWS V14.01,2013-09-20 07:50:00,
2013-09-20 03:51:00,66.0,58.2,30.01,ESE,117,0.0,0.0,76,0.00,,---,0.00,VWS V14.01,2013-09-20 07:51:00,
2013-09-20 03:55:00,66.0,58.6,30.01,ESE,119,0.0,0.0,77,0.00,,---,0.00,VWS V14.01,2013-09-20 07:55:00,
2013-09-20 03:56:00,66.0,58.6,30.01,ESE,119,0.0,0.0,77,0.00,,---,0.00,VWS V14.01,2013-09-20 07:56:00,
2013-09-20 04:00:00,66.0,58.2,30.01,ESE,119,0.0,0.0,76,0.00,,---,0.00,VWS V14.01,2013-09-20 08:00:00,
2013-09-20 04:01:00,66.0,58.2,30.01,ESE,119,0.0,0.0,76,0.00,,---,0.00,VWS V14.01,2013-09-20 08:01:00,
2013-09-20 04:05:00,66.0,58.6,30.01,ESE,119,0.0,0.0,77,0.00,,---,0.00,VWS V14.01,2013-09-20 08:05:00,
2013-09-20 04:06:00,66.0,58.6,30.01,ESE,119,0.0,0.0,77,0.00,,---,0.00,VWS V14.01,2013-09-20 08:06:00,
2013-09-20 04:10:00,65.8,58.8,30.01,ESE,119,0.0,0.0,78,0.00,,---,0.00,VWS V14.01,2013-09-20 08:10:00,
2013-09-20 04:11:00,65.8,58.8,30.01,ESE,119,0.0,0.0,78,0.00,,---,0.00,VWS V14.01,2013-09-20 08:11:00,
2013-09-20 04:15:00,65.6,59.6,30.01,ESE,119,0.0,0.0,81,0.00,,---,0.00,VWS V14.01,2013-09-20 08:15:00,
2013-09-20 04:16:00,65.6,59.6,30.01,ESE,119,0.0,0.0,81,0.00,,---,0.00,VWS V14.01,2013-09-20 08:16:00,
2013-09-20 04:20:00,65.3,59.7,30.01,ESE,119,0.0,0.0,82,0.00,,---,0.00,VWS V14.01,2013-09-20 08:20:00,
2013-09-20 04:21:00,65.3,59.7,30.01,ESE,119,0.0,0.0,82,0.00,,---,0.00,VWS V14.01,2013-09-20 08:21:00,
2013-09-20 04:25:00,65.0,59.4,30.01,ESE,119,0.0,0.0,82,0.00,,---,0.00,VWS V14.01,2013-09-20 08:25:00,
2013-09-20 04:26:00,65.0,59.7,30.01,ESE,119,0.0,0.0,83,0.00,,---,0.00,VWS V14.01,2013-09-20 08:26:00,
2013-09-20 04:30:00,64.8,59.5,30.01,ESE,119,0.0,0.0,83,0.00,,---,0.00,VWS V14.01,2013-09-20 08:30:00,
2013-09-20 04:31:00,64.8,59.9,30.01,ESE,119,0.0,0.0,84,0.00,,---,0.00,VWS V14.01,2013-09-20 08:31:00,
2013-09-20 04:35:00,64.7,59.4,30.01,ESE,119,0.0,0.0,83,0.00,,---,0.00,VWS V14.01,2013-09-20 08:35:00,
2013-09-20 04:36:00,64.7,59.4,30.01,ESE,119,0.0,0.0,83,0.00,,---,0.00,VWS V14.01,2013-09-20 08:36:00,
2013-09-20 04:40:00,64.3,59.4,30.01,ESE,119,0.0,0.0,84,0.00,,---,0.00,VWS V14.01,2013-09-20 08:40:00,
2013-09-20 04:41:00,64.3,59.0,30.01,ESE,119,0.0,0.0,83,0.00,,---,0.00,VWS V14.01,2013-09-20 08:41:00,
2013-09-20 04:45:00,64.3,59.4,30.01,ESE,119,0.0,0.0,84,0.00,,---,0.00,VWS V14.01,2013-09-20 08:45:00,
2013-09-20 04:46:00,64.3,59.4,30.01,ESE,119,0.0,0.0,84,0.00,,---,0.00,VWS V14.01,2013-09-20 08:46:00,
2013-09-20 04:50:00,64.2,59.3,30.01,ESE,119,0.0,0.0,84,0.00,,---,0.00,VWS V14.01,2013-09-20 08:50:00,
2013-09-20 04:51:00,64.2,59.3,30.01,ESE,119,0.0,0.0,84,0.00,,---,0.00,VWS V14.01,2013-09-20 08:51:00,
2013-09-20 04:55:00,64.2,59.6,30.01,ESE,119,0.0,0.0,85,0.00,,---,0.00,VWS V14.01,2013-09-20 08:55:00,
2013-09-20 04:56:00,64.2,59.6,30.01,ESE,119,0.0,0.0,85,0.00,,---,0.00,VWS V14.01,2013-09-20 08:56:00,
2013-09-20 05:00:00,64.2,59.9,30.02,ESE,119,0.0,0.0,86,0.00,,---,0.00,VWS V14.01,2013-09-20 09:00:00,
2013-09-20 05:01:00,64.2,59.9,30.02,ESE,119,0.0,0.0,86,0.00,,---,0.00,VWS V14.01,2013-09-20 09:01:00,
2013-09-20 05:05:00,64.2,59.9,30.02,ESE,119,0.0,0.0,86,0.00,,---,0.00,VWS V14.01,2013-09-20 09:05:00,
2013-09-20 05:06:00,64.2,59.9,30.02,ESE,119,0.0,0.0,86,0.00,,---,0.00,VWS V14.01,2013-09-20 09:06:00,
2013-09-20 05:10:00,64.2,59.9,30.02,ESE,119,0.0,0.0,86,0.00,,---,0.00,VWS V14.01,2013-09-20 09:10:00,
2013-09-20 05:11:00,64.2,59.9,30.02,ESE,119,0.0,0.0,86,0.00,,---,0.00,VWS V14.01,2013-09-20 09:11:00,
2013-09-20 05:15:00,63.9,59.3,30.02,ESE,119,0.0,0.0,85,0.00,,---,0.00,VWS V14.01,2013-09-20 09:15:00,
2013-09-20 05:16:00,63.9,59.3,30.02,ESE,119,0.0,0.0,85,0.00,,---,0.00,VWS V14.01,2013-09-20 09:16:00,
2013-09-20 05:20:00,63.9,59.3,30.02,ESE,119,0.0,0.0,85,0.00,,---,0.00,VWS V14.01,2013-09-20 09:20:00,
2013-09-20 05:21:00,63.9,59.3,30.02,ESE,119,0.0,0.0,85,0.00,,---,0.00,VWS V14.01,2013-09-20 09:21:00,
2013-09-20 05:25:00,63.9,60.0,30.02,ESE,119,0.0,0.0,87,0.00,,---,0.00,VWS V14.01,2013-09-20 09:25:00,
2013-09-20 05:26:00,63.9,60.0,30.02,ESE,119,0.0,0.0,87,0.00,,---,0.00,VWS V14.01,2013-09-20 09:26:00,
2013-09-20 05:30:00,63.9,60.0,30.02,ESE,119,0.0,0.0,87,0.00,,---,0.00,VWS V14.01,2013-09-20 09:30:00,
2013-09-20 05:31:00,63.9,60.0,30.02,ESE,119,0.0,0.0,87,0.00,,---,0.00,VWS V14.01,2013-09-20 09:31:00,
2013-09-20 05:35:00,63.9,60.0,30.02,ESE,119,0.0,0.0,87,0.00,,---,0.00,VWS V14.01,2013-09-20 09:35:00,
2013-09-20 05:36:00,63.9,60.0,30.02,ESE,119,0.0,0.0,87,0.00,,---,0.00,VWS V14.01,2013-09-20 09:36:00,
2013-09-20 05:40:00,63.9,60.0,30.02,ESE,119,0.0,0.0,87,0.00,,---,0.00,VWS V14.01,2013-09-20 09:40:00,
2013-09-20 05:41:00,63.9,60.0,30.02,ESE,119,0.0,0.0,87,0.00,,---,0.00,VWS V14.01,2013-09-20 09:41:00,
2013-09-20 05:45:00,62.7,58.8,30.02,ESE,119,0.0,0.0,87,0.02,,---,0.02,VWS V14.01,2013-09-20 09:45:00,
2013-09-20 05:46:00,62.9,59.0,30.02,ESE,119,0.0,0.0,87,0.00,,---,0.00,VWS V14.01,2013-09-20 09:46:00,
2013-09-20 05:50:00,62.7,59.7,30.02,ESE,119,0.0,0.0,90,0.02,,---,0.02,VWS V14.01,2013-09-20 09:50:00,
2013-09-20 05:51:00,62.7,59.7,30.02,ESE,119,0.0,0.0,90,0.02,,---,0.02,VWS V14.01,2013-09-20 09:51:00,
2013-09-20 05:55:00,62.6,59.6,30.02,ESE,119,0.0,0.0,90,0.02,,---,0.02,VWS V14.01,2013-09-20 09:55:00,
2013-09-20 05:56:00,62.6,59.6,30.02,ESE,119,0.0,0.0,90,0.02,,---,0.02,VWS V14.01,2013-09-20 09:56:00,
2013-09-20 06:00:00,62.1,59.1,30.01,ESE,119,0.0,0.0,90,0.02,,---,0.02,VWS V14.01,2013-09-20 10:00:00,
2013-09-20 06:01:00,62.3,59.3,30.01,ESE,119,0.0,0.0,90,0.02,,---,0.02,VWS V14.01,2013-09-20 10:01:00,
2013-09-20 06:05:00,62.1,59.8,30.01,ESE,119,0.0,0.0,92,0.02,,---,0.02,VWS V14.01,2013-09-20 10:05:00,
2013-09-20 06:06:00,62.1,59.1,30.01,ESE,119,0.0,0.0,90,0.02,,---,0.02,VWS V14.01,2013-09-20 10:06:00,
2013-09-20 06:10:00,62.1,59.8,30.01,ESE,119,0.0,0.0,92,0.02,,---,0.02,VWS V14.01,2013-09-20 10:10:00,
2013-09-20 06:11:00,62.1,59.8,30.01,ESE,119,0.0,0.0,92,0.02,,---,0.02,VWS V14.01,2013-09-20 10:11:00,
2013-09-20 06:15:00,62.1,59.8,30.02,ESE,119,0.0,0.0,92,0.02,,---,0.02,VWS V14.01,2013-09-20 10:15:00,
2013-09-20 06:16:00,62.1,59.8,30.02,ESE,119,0.0,0.0,92,0.02,,---,0.02,VWS V14.01,2013-09-20 10:16:00,
2013-09-20 06:20:00,62.3,60.0,30.02,ESE,119,0.0,0.0,92,0.02,,---,0.02,VWS V14.01,2013-09-20 10:20:00,
2013-09-20 06:21:00,62.3,60.0,30.02,ESE,119,0.0,0.0,92,0.02,,---,0.02,VWS V14.01,2013-09-20 10:21:00,
2013-09-20 06:25:00,62.1,59.8,30.02,ESE,119,0.0,0.0,92,0.02,,---,0.02,VWS V14.01,2013-09-20 10:25:00,
2013-09-20 06:26:00,62.1,59.8,30.02,ESE,119,0.0,0.0,92,0.02,,---,0.02,VWS V14.01,2013-09-20 10:26:00,
2013-09-20 06:30:00,62.1,59.8,30.02,ESE,119,0.0,0.0,92,0.02,,---,0.02,VWS V14.01,2013-09-20 10:30:00,
2013-09-20 06:31:00,62.1,59.8,30.02,ESE,119,0.0,0.0,92,0.02,,---,0.02,VWS V14.01,2013-09-20 10:31:00,
2013-09-20 06:35:00,62.1,59.8,30.02,ESE,119,0.0,0.0,92,0.02,,---,0.02,VWS V14.01,2013-09-20 10:35:00,
2013-09-20 06:36:00,62.1,59.8,30.02,ESE,119,0.0,0.0,92,0.02,,---,0.02,VWS V14.01,2013-09-20 10:36:00,
2013-09-20 06:40:00,62.0,59.7,30.02,ESE,119,0.0,0.0,92,0.02,,---,0.02,VWS V14.01,2013-09-20 10:40:00,
2013-09-20 06:45:00,62.0,59.7,30.02,ESE,119,0.0,0.0,92,0.02,,---,0.02,VWS V14.01,2013-09-20 10:45:00,
2013-09-20 06:50:00,62.0,59.7,30.02,ESE,119,0.0,0.0,92,0.00,,---,0.02,VWS V14.01,2013-09-20 10:50:00,
2013-09-20 06:55:00,62.0,59.7,30.02,ESE,119,0.0,0.0,92,0.00,,---,0.02,VWS V14.01,2013-09-20 10:55:00,
2013-09-20 07:00:00,62.0,60.3,30.03,ESE,119,0.0,0.0,94,0.01,,---,0.03,VWS V14.01,2013-09-20 11:00:00,
2013-09-20 07:05:00,62.0,60.3,30.03,ESE,119,0.0,0.0,94,0.01,,---,0.03,VWS V14.01,2013-09-20 11:05:00,
2013-09-20 07:10:00,62.0,60.6,30.03,ESE,119,0.0,0.0,95,0.01,,---,0.03,VWS V14.01,2013-09-20 11:10:00,
2013-09-20 07:15:00,61.8,60.4,30.03,ESE,119,0.0,0.0,95,0.01,,---,0.03,VWS V14.01,2013-09-20 11:15:00,
2013-09-20 07:20:00,61.8,60.4,30.03,ESE,119,0.0,0.0,95,0.02,,---,0.04,VWS V14.01,2013-09-20 11:20:00,
2013-09-20 07:25:00,62.0,60.8,30.03,ESE,119,0.0,0.0,96,0.02,,---,0.04,VWS V14.01,2013-09-20 11:25:00,
2013-09-20 07:30:00,61.8,60.7,30.03,ESE,119,0.0,0.0,96,0.02,,---,0.04,VWS V14.01,2013-09-20 11:30:00,
2013-09-20 07:35:00,61.8,60.7,30.03,ESE,119,0.0,0.0,96,0.02,,---,0.04,VWS V14.01,2013-09-20 11:35:00,
2013-09-20 07:40:00,61.6,60.5,30.03,ESE,119,0.0,0.0,96,0.03,,---,0.05,VWS V14.01,2013-09-20 11:40:00,
2013-09-20 07:45:00,61.6,60.5,30.03,ESE,119,0.0,0.0,96,0.04,,---,0.06,VWS V14.01,2013-09-20 11:45:00,
2013-09-20 07:50:00,61.6,60.7,30.03,ESE,119,0.0,0.0,97,0.06,,---,0.08,VWS V14.01,2013-09-20 11:50:00,
2013-09-20 07:55:00,61.8,61.2,30.03,ESE,119,0.0,0.0,98,0.07,,---,0.09,VWS V14.01,2013-09-20 11:55:00,
2013-09-20 08:00:00,61.8,61.2,30.04,ESE,119,0.0,0.0,98,0.09,,---,0.11,VWS V14.01,2013-09-20 12:00:00,
2013-09-20 08:05:00,61.8,61.5,30.04,ESE,119,0.0,0.0,99,0.10,,---,0.13,VWS V14.01,2013-09-20 12:05:00,
2013-09-20 08:10:00,62.0,62.0,30.04,ESE,119,0.0,0.0,100,0.11,,---,0.14,VWS V14.01,2013-09-20 12:10:00,
2013-09-20 08:15:00,62.0,62.0,30.04,ESE,119,0.0,0.0,100,0.11,,---,0.14,VWS V14.01,2013-09-20 12:15:00,
2013-09-20 08:20:00,62.0,62.0,30.04,ESE,119,0.0,0.0,100,0.11,,---,0.15,VWS V14.01,2013-09-20 12:20:00,
2013-09-20 08:25:00,62.0,62.0,30.04,ESE,119,0.0,0.0,100,0.12,,---,0.16,VWS V14.01,2013-09-20 12:25:00,
2013-09-20 08:30:00,62.1,62.1,30.04,ESE,119,0.0,0.0,100,0.12,,---,0.16,VWS V14.01,2013-09-20 12:30:00,
2013-09-20 08:35:00,62.1,62.1,30.04,ESE,119,0.0,0.0,100,0.12,,---,0.16,VWS V14.01,2013-09-20 12:35:00,
2013-09-20 08:40:00,62.3,62.3,30.04,ESE,119,0.0,0.0,100,0.11,,---,0.16,VWS V14.01,2013-09-20 12:40:00,
2013-09-20 08:45:00,62.3,62.3,30.04,ESE,119,0.0,0.0,100,0.11,,---,0.16,VWS V14.01,2013-09-20 12:45:00,
2013-09-20 08:50:00,62.4,62.4,30.04,ESE,119,0.0,0.0,100,0.10,,---,0.16,VWS V14.01,2013-09-20 12:50:00,
2013-09-20 08:55:00,62.4,62.4,30.04,ESE,119,0.0,0.0,100,0.08,,---,0.16,VWS V14.01,2013-09-20 12:55:00,
2013-09-20 09:00:00,62.4,62.4,30.05,ESE,119,0.0,0.0,100,0.07,,---,0.17,VWS V14.01,2013-09-20 13:00:00,
2013-09-20 09:05:00,62.6,62.6,30.05,ESE,119,0.0,0.0,100,0.06,,---,0.17,VWS V14.01,2013-09-20 13:05:00,
2013-09-20 09:10:00,62.4,62.4,30.05,ESE,102,3.0,6.0,100,0.04,,---,0.17,VWS V14.01,2013-09-20 13:10:00,
2013-09-20 09:15:00,62.3,62.3,30.04,SSE,150,0.0,2.0,100,0.03,,---,0.17,VWS V14.01,2013-09-20 13:15:00,
2013-09-20 09:20:00,62.3,62.3,30.04,SSE,151,0.0,3.0,100,0.02,,---,0.17,VWS V14.01,2013-09-20 13:20:00,
2013-09-20 09:25:00,62.3,62.3,30.04,SE,138,0.0,1.0,100,0.02,,---,0.17,VWS V14.01,2013-09-20 13:25:00,
2013-09-20 09:30:00,62.3,62.3,30.04,ESE,116,1.0,1.0,100,0.01,,---,0.17,VWS V14.01,2013-09-20 13:30:00,
2013-09-20 09:35:00,62.3,62.3,30.04,ESE,112,0.0,1.0,100,0.01,,---,0.17,VWS V14.01,2013-09-20 13:35:00,
2013-09-20 09:40:00,62.3,62.3,30.04,East,96,0.0,0.0,100,0.01,,---,0.17,VWS V14.01,2013-09-20 13:40:00,
2013-09-20 09:45:00,62.4,62.4,30.03,East,96,0.0,0.0,100,0.01,,---,0.17,VWS V14.01,2013-09-20 13:45:00,
2013-09-20 09:50:00,62.6,62.6,30.03,SE,141,0.0,1.0,100,0.01,,---,0.17,VWS V14.01,2013-09-20 13:50:00,
2013-09-20 09:55:00,62.6,62.6,30.03,SE,141,0.0,0.0,100,0.01,,---,0.17,VWS V14.01,2013-09-20 13:55:00,
2013-09-20 10:00:00,62.9,62.9,30.04,ESE,109,0.0,0.0,100,0.01,,---,0.17,VWS V14.01,2013-09-20 14:00:00,
2013-09-20 10:05:00,63.1,63.1,30.04,ESE,109,0.0,0.0,100,0.00,,---,0.17,VWS V14.01,2013-09-20 14:05:00,
2013-09-20 10:10:00,63.1,63.1,30.04,ESE,112,0.0,0.0,100,0.00,,---,0.17,VWS V14.01,2013-09-20 14:10:00,
2013-09-20 10:15:00,63.2,63.2,30.04,ESE,107,0.0,0.0,100,0.00,,---,0.17,VWS V14.01,2013-09-20 14:15:00,
2013-09-20 10:20:00,63.2,63.2,30.04,ESE,114,0.0,0.0,100,0.00,,---,0.17,VWS V14.01,2013-09-20 14:20:00,
2013-09-20 10:25:00,63.2,63.2,30.04,ESE,114,0.0,0.0,100,0.00,,---,0.17,VWS V14.01,2013-09-20 14:25:00,
2013-09-20 10:30:00,63.2,63.2,30.03,SSW,192,0.0,0.0,100,0.00,,---,0.17,VWS V14.01,2013-09-20 14:30:00,
2013-09-20 10:35:00,63.2,63.2,30.03,SE,134,0.0,1.0,100,0.00,,---,0.17,VWS V14.01,2013-09-20 14:35:00,
2013-09-20 10:40:00,63.2,63.2,30.03,ESE,121,2.0,2.0,100,0.00,,---,0.17,VWS V14.01,2013-09-20 14:40:00,
2013-09-20 10:45:00,64.0,64.0,30.03,ESE,109,0.0,2.0,100,0.00,,---,0.17,VWS V14.01,2013-09-20 14:45:00,
2013-09-20 10:50:00,64.7,64.7,30.03,ESE,112,2.0,3.0,100,0.00,,---,0.17,VWS V14.01,2013-09-20 14:50:00,
2013-09-20 10:55:00,64.7,64.7,30.03,SE,133,2.0,2.0,100,0.00,,---,0.17,VWS V14.01,2013-09-20 14:55:00,
2013-09-20 11:00:00,64.7,64.7,30.02,SE,136,3.0,3.0,100,0.00,,---,0.17,VWS V14.01,2013-09-20 15:00:00,
2013-09-20 11:05:00,64.7,64.7,30.02,South,191,3.0,3.0,100,0.00,,---,0.17,VWS V14.01,2013-09-20 15:05:00,
2013-09-20 11:10:00,65.2,65.2,30.02,SSW,203,0.0,3.0,100,0.00,,---,0.17,VWS V14.01,2013-09-20 15:10:00,
2013-09-20 11:15:00,65.3,65.3,30.02,SSE,160,1.0,1.0,100,0.00,,---,0.17,VWS V14.01,2013-09-20 15:15:00,
2013-09-20 11:20:00,65.3,65.3,30.02,East,100,0.0,1.0,100,0.00,,---,0.17,VWS V14.01,2013-09-20 15:20:00,
2013-09-20 11:25:00,65.5,65.5,30.02,East,97,0.0,2.0,100,0.00,,---,0.17,VWS V14.01,2013-09-20 15:25:00,
2013-09-20 11:30:00,65.5,65.5,30.02,ESE,119,0.0,0.0,100,0.00,,---,0.17,VWS V14.01,2013-09-20 15:30:00,
2013-09-20 11:35:00,65.8,65.8,30.02,ESE,110,0.0,0.0,100,0.00,,---,0.17,VWS V14.01,2013-09-20 15:35:00,
2013-09-20 11:40:00,65.8,65.8,30.02,ESE,107,0.0,0.0,100,0.00,,---,0.17,VWS V14.01,2013-09-20 15:40:00,
2013-09-20 11:45:00,65.8,65.8,30.02,ESE,107,0.0,0.0,100,0.00,,---,0.17,VWS V14.01,2013-09-20 15:45:00,
2013-09-20 11:50:00,66.3,66.3,30.02,ESE,107,0.0,0.0,100,0.00,,---,0.17,VWS V14.01,2013-09-20 15:50:00,
2013-09-20 11:55:00,66.3,66.3,30.02,ESE,113,0.0,3.0,100,0.00,,---,0.17,VWS V14.01,2013-09-20 15:55:00,
2013-09-20 12:00:00,66.1,66.1,30.02,South,171,0.0,0.0,100,0.00,,---,0.17,VWS V14.01,2013-09-20 16:00:00,
2013-09-20 12:05:00,66.1,66.1,30.02,South,171,0.0,0.0,100,0.00,,---,0.17,VWS V14.01,2013-09-20 16:05:00,
2013-09-20 12:10:00,66.1,66.1,30.02,South,171,0.0,0.0,100,0.00,,---,0.17,VWS V14.01,2013-09-20 16:10:00,
2013-09-20 12:15:00,66.1,66.1,30.01,South,171,0.0,0.0,100,0.00,,---,0.17,VWS V14.01,2013-09-20 16:15:00,
2013-09-20 12:20:00,66.1,66.1,30.01,South,171,0.0,0.0,100,0.00,,---,0.17,VWS V14.01,2013-09-20 16:20:00,
2013-09-20 12:25:00,66.1,66.1,30.01,South,171,0.0,0.0,100,0.00,,---,0.17,VWS V14.01,2013-09-20 16:25:00,
2013-09-20 12:30:00,66.1,66.1,30.02,South,171,0.0,0.0,100,0.00,,---,0.17,VWS V14.01,2013-09-20 16:30:00,
2013-09-20 12:35:00,66.1,66.1,30.02,South,171,0.0,0.0,100,0.00,,---,0.17,VWS V14.01,2013-09-20 16:35:00,
2013-09-20 12:40:00,66.1,66.1,30.02,South,171,0.0,0.0,100,0.00,,---,0.17,VWS V14.01,2013-09-20 16:40:00,
2013-09-20 12:45:00,66.1,66.1,30.01,SSW,198,0.0,0.0,100,0.00,,---,0.17,VWS V14.01,2013-09-20 16:45:00,
2013-09-20 12:50:00,66.1,66.1,30.01,East,83,5.0,5.0,100,0.00,,---,0.17,VWS V14.01,2013-09-20 16:50:00,
2013-09-20 12:55:00,66.1,66.1,30.01,East,83,5.0,5.0,100,0.00,,---,0.17,VWS V14.01,2013-09-20 16:55:00,
2013-09-20 13:00:00,66.1,66.1,30.01,East,83,5.0,5.0,100,0.00,,---,0.17,VWS V14.01,2013-09-20 17:00:00,
2013-09-20 13:05:00,66.9,66.9,30.01,ESE,116,5.0,5.0,100,0.00,,---,0.17,VWS V14.01,2013-09-20 17:05:00,
2013-09-20 13:06:00,66.9,66.9,30.01,ESE,116,5.0,5.0,100,0.00,,---,0.17,VWS V14.01,2013-09-20 17:06:00,
2013-09-20 13:10:00,66.9,66.9,30.01,ESE,116,5.0,5.0,100,0.00,,---,0.17,VWS V14.01,2013-09-20 17:10:00,
2013-09-20 13:11:00,66.9,66.9,30.01,ESE,116,5.0,5.0,100,0.00,,---,0.17,VWS V14.01,2013-09-20 17:11:00,
2013-09-20 13:15:00,66.9,66.9,30.00,ESE,116,5.0,5.0,100,0.00,,---,0.17,VWS V14.01,2013-09-20 17:15:00,
2013-09-20 13:16:00,66.9,66.9,30.00,ESE,116,5.0,5.0,100,0.00,,---,0.17,VWS V14.01,2013-09-20 17:16:00,
2013-09-20 13:20:00,66.9,66.9,30.00,ESE,116,5.0,5.0,100,0.00,,---,0.17,VWS V14.01,2013-09-20 17:20:00,
2013-09-20 13:21:00,66.9,66.9,30.00,ESE,116,5.0,5.0,100,0.00,,---,0.17,VWS V14.01,2013-09-20 17:21:00,
2013-09-20 13:25:00,66.9,66.9,30.00,ESE,116,5.0,5.0,100,0.00,,---,0.17,VWS V14.01,2013-09-20 17:25:00,
2013-09-20 13:26:00,66.9,66.9,30.00,ESE,116,5.0,5.0,100,0.00,,---,0.17,VWS V14.01,2013-09-20 17:26:00,
2013-09-20 13:30:00,66.9,66.9,30.00,ESE,116,5.0,5.0,100,0.00,,---,0.17,VWS V14.01,2013-09-20 17:30:00,
2013-09-20 13:31:00,66.9,66.9,30.00,ESE,116,5.0,5.0,100,0.00,,---,0.17,VWS V14.01,2013-09-20 17:31:00,
2013-09-20 13:35:00,66.9,66.9,30.00,ESE,114,5.0,5.0,100,0.00,,---,0.17,VWS V14.01,2013-09-20 17:35:00,
2013-09-20 13:36:00,66.9,66.9,30.00,ESE,114,5.0,5.0,100,0.00,,---,0.17,VWS V14.01,2013-09-20 17:36:00,
2013-09-20 13:40:00,67.8,67.8,30.00,ESE,119,2.0,5.0,100,0.00,,---,0.17,VWS V14.01,2013-09-20 17:40:00,
2013-09-20 13:41:00,67.8,67.8,30.00,ESE,119,2.0,5.0,100,0.00,,---,0.17,VWS V14.01,2013-09-20 17:41:00,
2013-09-20 13:45:00,67.9,67.9,29.99,SE,126,0.0,2.0,100,0.00,,---,0.17,VWS V14.01,2013-09-20 17:45:00,
2013-09-20 13:46:00,67.9,67.9,29.99,SE,126,0.0,2.0,100,0.00,,---,0.17,VWS V14.01,2013-09-20 17:46:00,
2013-09-20 13:50:00,67.9,67.9,29.99,SE,126,0.0,0.0,100,0.00,,---,0.17,VWS V14.01,2013-09-20 17:50:00,
2013-09-20 13:51:00,67.9,67.9,29.99,SE,126,0.0,0.0,100,0.00,,---,0.17,VWS V14.01,2013-09-20 17:51:00,
2013-09-20 13:55:00,67.8,67.8,29.99,ESE,117,5.0,5.0,100,0.00,,---,0.17,VWS V14.01,2013-09-20 17:55:00,
2013-09-20 13:56:00,67.8,67.8,29.99,ESE,117,5.0,5.0,100,0.00,,---,0.17,VWS V14.01,2013-09-20 17:56:00,
2013-09-20 14:00:00,67.8,67.8,29.98,ESE,117,5.0,5.0,100,0.00,,---,0.17,VWS V14.01,2013-09-20 18:00:00,
2013-09-20 14:01:00,67.8,67.8,29.98,ESE,117,5.0,5.0,100,0.00,,---,0.17,VWS V14.01,2013-09-20 18:01:00,
2013-09-20 14:05:00,67.8,67.8,29.98,ESE,117,5.0,5.0,100,0.00,,---,0.17,VWS V14.01,2013-09-20 18:05:00,
2013-09-20 14:06:00,67.8,67.8,29.98,ESE,117,5.0,5.0,100,0.00,,---,0.17,VWS V14.01,2013-09-20 18:06:00,
2013-09-20 14:10:00,67.8,67.8,29.98,ESE,117,5.0,5.0,100,0.00,,---,0.17,VWS V14.01,2013-09-20 18:10:00,
2013-09-20 14:11:00,67.8,67.8,29.98,ESE,117,5.0,5.0,100,0.00,,---,0.17,VWS V14.01,2013-09-20 18:11:00,
2013-09-20 14:15:00,67.8,67.8,29.98,ESE,117,5.0,5.0,100,0.00,,---,0.17,VWS V14.01,2013-09-20 18:15:00,
2013-09-20 14:16:00,67.8,67.8,29.98,ESE,117,5.0,5.0,100,0.00,,---,0.17,VWS V14.01,2013-09-20 18:16:00,
2013-09-20 14:20:00,67.8,67.8,29.98,ESE,117,5.0,5.0,100,0.00,,---,0.17,VWS V14.01,2013-09-20 18:20:00,
2013-09-20 14:21:00,67.8,67.8,29.98,ESE,117,5.0,5.0,100,0.00,,---,0.17,VWS V14.01,2013-09-20 18:21:00,
2013-09-20 14:25:00,67.8,67.8,29.98,ESE,117,5.0,5.0,100,0.00,,---,0.17,VWS V14.01,2013-09-20 18:25:00,
2013-09-20 14:26:00,67.8,67.8,29.98,ESE,117,5.0,5.0,100,0.00,,---,0.17,VWS V14.01,2013-09-20 18:26:00,
2013-09-20 14:30:00,67.8,67.8,29.98,ESE,117,5.0,5.0,100,0.00,,---,0.17,VWS V14.01,2013-09-20 18:30:00,
2013-09-20 14:31:00,67.8,67.8,29.98,ESE,117,5.0,5.0,100,0.00,,---,0.17,VWS V14.01,2013-09-20 18:31:00,
2013-09-20 14:35:00,67.8,67.8,29.98,ESE,117,5.0,5.0,100,0.00,,---,0.17,VWS V14.01,2013-09-20 18:35:00,
2013-09-20 14:36:00,67.8,67.8,29.98,ESE,117,5.0,5.0,100,0.00,,---,0.17,VWS V14.01,2013-09-20 18:36:00,
2013-09-20 14:40:00,67.8,67.8,29.98,ESE,117,5.0,5.0,100,0.00,,---,0.17,VWS V14.01,2013-09-20 18:40:00,
2013-09-20 14:41:00,67.8,67.8,29.98,ESE,117,5.0,5.0,100,0.00,,---,0.17,VWS V14.01,2013-09-20 18:41:00,
2013-09-20 14:45:00,67.8,67.8,29.98,ESE,117,5.0,5.0,100,0.00,,---,0.17,VWS V14.01,2013-09-20 18:45:00,
2013-09-20 14:46:00,67.8,67.8,29.98,ESE,117,5.0,5.0,100,0.00,,---,0.17,VWS V14.01,2013-09-20 18:46:00,
2013-09-20 14:50:00,67.8,67.8,29.98,ESE,117,5.0,5.0,100,0.00,,---,0.17,VWS V14.01,2013-09-20 18:50:00,
2013-09-20 14:55:00,67.8,67.8,29.98,ESE,117,5.0,5.0,100,0.00,,---,0.17,VWS V14.01,2013-09-20 18:55:00,
2013-09-20 15:00:00,0.0,0.0,29.97,North,0,0.0,0.0,0,0.00,,---,0.17,VWS V14.01,2013-09-20 19:00:00,
2013-09-20 15:05:00,0.0,0.0,29.97,North,0,0.0,0.0,0,0.00,,---,0.17,VWS V14.01,2013-09-20 19:05:00,
2013-09-20 15:10:00,0.0,0.0,29.97,North,0,0.0,0.0,0,0.00,,---,0.17,VWS V14.01,2013-09-20 19:10:00,
2013-09-20 15:15:00,0.0,0.0,29.97,North,0,0.0,0.0,0,0.00,,---,0.17,VWS V14.01,2013-09-20 19:15:00,
2013-09-20 15:20:00,67.8,67.8,29.98,ESE,117,5.0,5.0,100,0.00,,---,0.17,VWS V14.01,2013-09-20 19:20:00,
2013-09-20 15:25:00,0.0,0.0,29.97,North,0,0.0,0.0,0,0.00,,---,0.17,VWS V14.01,2013-09-20 19:25:00,
2013-09-20 15:30:00,0.0,0.0,29.96,SE,127,0.0,0.0,0,0.00,,---,0.17,VWS V14.01,2013-09-20 19:30:00,
2013-09-20 15:35:00,0.0,0.0,29.96,SE,127,0.0,0.0,0,0.00,,---,0.17,VWS V14.01,2013-09-20 19:35:00,
2013-09-20 15:40:00,0.0,0.0,29.96,SE,127,0.0,0.0,0,0.00,,---,0.17,VWS V14.01,2013-09-20 19:40:00,
2013-09-20 15:45:00,0.0,0.0,29.96,SE,127,0.0,0.0,0,0.00,,---,0.17,VWS V14.01,2013-09-20 19:45:00,
2013-09-20 15:50:00,0.0,0.0,29.96,SE,127,0.0,0.0,0,0.00,,---,0.17,VWS V14.01,2013-09-20 19:50:00,
2013-09-20 15:55:00,0.0,0.0,29.96,SE,127,0.0,0.0,0,0.00,,---,0.17,VWS V14.01,2013-09-20 19:55:00,
2013-09-20 16:00:00,0.0,0.0,29.95,SE,127,0.0,0.0,0,0.00,,---,0.17,VWS V14.01,2013-09-20 20:00:00,
2013-09-20 16:01:00,0.0,0.0,29.95,SE,127,0.0,0.0,0,0.00,,---,0.17,VWS V14.01,2013-09-20 20:01:00,
2013-09-20 16:05:00,0.0,0.0,29.95,SE,127,0.0,0.0,0,0.00,,---,0.17,VWS V14.01,2013-09-20 20:05:00,
2013-09-20 16:06:00,0.0,0.0,29.95,SE,127,0.0,0.0,0,0.00,,---,0.17,VWS V14.01,2013-09-20 20:06:00,
2013-09-20 16:10:00,0.0,0.0,29.97,North,0,0.0,0.0,0,0.00,,---,0.17,VWS V14.01,2013-09-20 20:10:00,
2013-09-20 16:11:00,0.0,0.0,29.95,SE,127,0.0,0.0,0,0.00,,---,0.17,VWS V14.01,2013-09-20 20:11:00,
2013-09-20 16:15:00,0.0,0.0,29.97,North,0,0.0,0.0,0,0.00,,---,0.17,VWS V14.01,2013-09-20 20:15:00,
2013-09-20 16:16:00,0.0,0.0,29.95,SE,127,0.0,0.0,0,0.00,,---,0.17,VWS V14.01,2013-09-20 20:16:00,
2013-09-20 16:20:00,0.0,0.0,29.95,SE,127,0.0,0.0,0,0.00,,---,0.17,VWS V14.01,2013-09-20 20:20:00,
2013-09-20 16:21:00,0.0,0.0,29.95,SE,127,0.0,0.0,0,0.00,,---,0.17,VWS V14.01,2013-09-20 20:21:00,
2013-09-20 16:25:00,0.0,0.0,29.95,SE,127,0.0,0.0,0,0.00,,---,0.17,VWS V14.01,2013-09-20 20:25:00,
2013-09-20 16:26:00,0.0,0.0,29.95,SE,127,0.0,0.0,0,0.00,,---,0.17,VWS V14.01,2013-09-20 20:26:00,
2013-09-20 16:30:00,0.0,0.0,29.95,SE,127,0.0,0.0,0,0.00,,---,0.17,VWS V14.01,2013-09-20 20:30:00,
2013-09-20 16:31:00,0.0,0.0,29.95,SE,127,0.0,0.0,0,0.00,,---,0.17,VWS V14.01,2013-09-20 20:31:00,
2013-09-20 16:35:00,67.4,0.0,29.95,SSE,151,0.0,0.0,0,0.00,,---,0.17,VWS V14.01,2013-09-20 20:35:00,
2013-09-20 16:36:00,67.4,0.0,29.95,SSE,151,0.0,0.0,0,0.00,,---,0.17,VWS V14.01,2013-09-20 20:36:00,
2013-09-20 16:40:00,67.4,0.0,29.95,SSE,151,0.0,0.0,0,0.00,,---,0.17,VWS V14.01,2013-09-20 20:40:00,
2013-09-20 16:41:00,67.4,0.0,29.95,SSE,151,0.0,0.0,0,0.00,,---,0.17,VWS V14.01,2013-09-20 20:41:00,
2013-09-20 16:45:00,0.0,0.0,29.96,SE,127,0.0,0.0,0,0.00,,---,0.17,VWS V14.01,2013-09-20 20:45:00,
2013-09-20 16:49:00,0.0,0.0,29.95,North,0,0.0,0.0,0,0.00,,---,0.17,VWS V14.01,2013-09-20 20:49:00,
2013-09-20 16:50:00,0.0,0.0,29.96,SE,127,0.0,0.0,0,0.00,,---,0.17,VWS V14.01,2013-09-20 20:50:00,
2013-09-20 16:54:00,0.0,0.0,29.95,North,0,0.0,0.0,0,0.00,,---,0.17,VWS V14.01,2013-09-20 20:54:00,
2013-09-20 16:55:00,0.0,0.0,29.96,SE,127,0.0,0.0,0,0.00,,---,0.17,VWS V14.01,2013-09-20 20:55:00,
2013-09-20 16:59:00,0.0,0.0,29.95,North,0,0.0,0.0,0,0.00,,---,0.17,VWS V14.01,2013-09-20 20:59:00,
2013-09-20 17:00:00,0.0,0.0,29.95,SE,127,0.0,0.0,0,0.00,,---,0.17,VWS V14.01,2013-09-20 21:00:00,
2013-09-20 17:04:00,0.0,0.0,29.94,North,0,0.0,0.0,0,0.00,,---,0.17,VWS V14.01,2013-09-20 21:04:00,
2013-09-20 17:05:00,0.0,0.0,29.95,SE,127,0.0,0.0,0,0.00,,---,0.17,VWS V14.01,2013-09-20 21:05:00,
2013-09-20 17:09:00,0.0,0.0,29.94,North,0,0.0,0.0,0,0.00,,---,0.17,VWS V14.01,2013-09-20 21:09:00,
2013-09-20 17:10:00,0.0,0.0,29.95,SE,127,0.0,0.0,0,0.00,,---,0.17,VWS V14.01,2013-09-20 21:10:00,
2013-09-20 17:14:00,0.0,0.0,29.94,North,0,0.0,0.0,0,0.00,,---,0.17,VWS V14.01,2013-09-20 21:14:00,
2013-09-20 17:15:00,0.0,0.0,29.95,SE,127,0.0,0.0,0,0.00,,---,0.17,VWS V14.01,2013-09-20 21:15:00,
2013-09-20 17:19:00,0.0,0.0,29.94,North,0,0.0,0.0,0,0.00,,---,0.17,VWS V14.01,2013-09-20 21:19:00,
2013-09-20 17:20:00,0.0,0.0,29.95,SE,127,0.0,0.0,0,0.00,,---,0.17,VWS V14.01,2013-09-20 21:20:00,
2013-09-20 17:24:00,0.0,0.0,29.94,North,0,0.0,0.0,0,0.00,,---,0.17,VWS V14.01,2013-09-20 21:24:00,
2013-09-20 17:25:00,0.0,0.0,29.95,SE,127,0.0,0.0,0,0.00,,---,0.17,VWS V14.01,2013-09-20 21:25:00,
2013-09-20 17:29:00,0.0,0.0,29.94,North,0,0.0,0.0,0,0.00,,---,0.17,VWS V14.01,2013-09-20 21:29:00,
2013-09-20 17:30:00,0.0,0.0,29.95,SE,127,0.0,0.0,0,0.00,,---,0.17,VWS V14.01,2013-09-20 21:30:00,
2013-09-20 17:34:00,0.0,0.0,29.94,North,0,0.0,0.0,0,0.00,,---,0.17,VWS V14.01,2013-09-20 21:34:00,
2013-09-20 17:35:00,67.4,0.0,29.95,SSE,151,0.0,0.0,0,0.00,,---,0.17,VWS V14.01,2013-09-20 21:35:00,
2013-09-20 17:39:00,0.0,0.0,29.94,North,0,0.0,0.0,0,0.00,,---,0.17,VWS V14.01,2013-09-20 21:39:00,
2013-09-20 17:40:00,67.4,0.0,29.95,SSE,151,0.0,0.0,0,0.00,,---,0.17,VWS V14.01,2013-09-20 21:40:00,
2013-09-20 17:44:00,0.0,0.0,29.94,North,0,0.0,0.0,0,0.00,,---,0.17,VWS V14.01,2013-09-20 21:44:00,
2013-09-20 17:49:00,0.0,0.0,29.94,North,0,0.0,0.0,0,0.00,,---,0.17,VWS V14.01,2013-09-20 21:49:00,
2013-09-20 17:50:00,0.0,0.0,29.95,North,0,0.0,0.0,0,0.00,,---,0.17,VWS V14.01,2013-09-20 21:50:00,
2013-09-20 17:54:00,0.0,0.0,29.94,North,0,0.0,0.0,0,0.00,,---,0.17,VWS V14.01,2013-09-20 21:54:00,
2013-09-20 17:55:00,0.0,0.0,29.95,North,0,0.0,0.0,0,0.00,,---,0.17,VWS V14.01,2013-09-20 21:55:00,
2013-09-20 17:59:00,0.0,0.0,29.94,North,0,0.0,0.0,0,0.00,,---,0.17,VWS V14.01,2013-09-20 21:59:00,
2013-09-20 18:00:00,0.0,0.0,29.94,North,0,0.0,0.0,0,0.00,,---,0.17,VWS V14.01,2013-09-20 22:00:00,
2013-09-20 18:04:00,0.0,0.0,29.94,North,0,0.0,0.0,0,0.00,,---,0.17,VWS V14.01,2013-09-20 22:04:00,
2013-09-20 18:05:00,0.0,0.0,29.94,North,0,0.0,0.0,0,0.00,,---,0.17,VWS V14.01,2013-09-20 22:05:00,
2013-09-20 18:09:00,0.0,0.0,29.94,North,0,0.0,0.0,0,0.00,,---,0.17,VWS V14.01,2013-09-20 22:09:00,
2013-09-20 18:10:00,0.0,0.0,29.94,North,0,0.0,0.0,0,0.00,,---,0.17,VWS V14.01,2013-09-20 22:10:00,
2013-09-20 18:14:00,0.0,0.0,29.94,North,0,0.0,0.0,0,0.00,,---,0.17,VWS V14.01,2013-09-20 22:14:00,
2013-09-20 18:15:00,0.0,0.0,29.94,North,0,0.0,0.0,0,0.00,,---,0.17,VWS V14.01,2013-09-20 22:15:00,
2013-09-20 18:19:00,0.0,0.0,29.94,North,0,0.0,0.0,0,0.00,,---,0.17,VWS V14.01,2013-09-20 22:19:00,
2013-09-20 18:20:00,0.0,0.0,29.94,North,0,0.0,0.0,0,0.00,,---,0.17,VWS V14.01,2013-09-20 22:20:00,
2013-09-20 18:24:00,0.0,0.0,29.94,North,0,0.0,0.0,0,0.00,,---,0.17,VWS V14.01,2013-09-20 22:24:00,
2013-09-20 18:25:00,0.0,0.0,29.94,North,0,0.0,0.0,0,0.00,,---,0.17,VWS V14.01,2013-09-20 22:25:00,
2013-09-20 18:29:00,0.0,0.0,29.94,North,0,0.0,0.0,0,0.00,,---,0.17,VWS V14.01,2013-09-20 22:29:00,
2013-09-20 18:30:00,0.0,0.0,29.94,North,0,0.0,0.0,0,0.00,,---,0.17,VWS V14.01,2013-09-20 22:30:00,
2013-09-20 18:34:00,0.0,0.0,29.94,North,0,0.0,0.0,0,0.00,,---,0.17,VWS V14.01,2013-09-20 22:34:00,
2013-09-20 18:35:00,0.0,0.0,29.94,North,0,0.0,0.0,0,0.00,,---,0.17,VWS V14.01,2013-09-20 22:35:00,
2013-09-20 18:39:00,0.0,0.0,29.94,North,0,0.0,0.0,0,0.00,,---,0.17,VWS V14.01,2013-09-20 22:39:00,
2013-09-20 18:40:00,0.0,0.0,29.94,North,0,0.0,0.0,0,0.00,,---,0.17,VWS V14.01,2013-09-20 22:40:00,
2013-09-20 18:44:00,0.0,0.0,29.94,North,0,0.0,0.0,0,0.00,,---,0.17,VWS V14.01,2013-09-20 22:44:00,
2013-09-20 18:45:00,0.0,0.0,29.94,North,0,0.0,0.0,0,0.00,,---,0.17,VWS V14.01,2013-09-20 22:45:00,
2013-09-20 18:49:00,0.0,0.0,29.94,North,0,0.0,0.0,0,0.00,,---,0.17,VWS V14.01,2013-09-20 22:49:00,
2013-09-20 18:50:00,0.0,0.0,29.94,North,0,0.0,0.0,0,0.00,,---,0.17,VWS V14.01,2013-09-20 22:50:00,
2013-09-20 18:54:00,0.0,0.0,29.94,North,0,0.0,0.0,0,0.00,,---,0.17,VWS V14.01,2013-09-20 22:54:00,
2013-09-20 18:55:00,0.0,0.0,29.94,North,0,0.0,0.0,0,0.00,,---,0.17,VWS V14.01,2013-09-20 22:55:00,
2013-09-20 18:59:00,0.0,0.0,29.94,North,0,0.0,0.0,0,0.00,,---,0.17,VWS V14.01,2013-09-20 22:59:00,
2013-09-20 19:00:00,0.0,0.0,29.94,North,0,0.0,0.0,0,0.00,,---,0.17,VWS V14.01,2013-09-20 23:00:00,
2013-09-20 19:04:00,0.0,0.0,29.94,North,0,0.0,0.0,0,0.00,,---,0.17,VWS V14.01,2013-09-20 23:04:00,
2013-09-20 19:05:00,0.0,0.0,29.94,North,0,0.0,0.0,0,0.00,,---,0.17,VWS V14.01,2013-09-20 23:05:00,
2013-09-20 19:09:00,0.0,0.0,29.94,North,0,0.0,0.0,0,0.00,,---,0.17,VWS V14.01,2013-09-20 23:09:00,
2013-09-20 19:10:00,0.0,0.0,29.94,North,0,0.0,0.0,0,0.00,,---,0.17,VWS V14.01,2013-09-20 23:10:00,
2013-09-20 19:14:00,0.0,0.0,29.94,North,0,0.0,0.0,0,0.00,,---,0.17,VWS V14.01,2013-09-20 23:14:00,
2013-09-20 19:15:00,0.0,0.0,29.94,North,0,0.0,0.0,0,0.00,,---,0.17,VWS V14.01,2013-09-20 23:15:00,
2013-09-20 19:19:00,0.0,0.0,29.93,North,0,0.0,0.0,0,0.00,,---,0.17,VWS V14.01,2013-09-20 23:19:00,
2013-09-20 19:20:00,0.0,0.0,29.94,North,0,0.0,0.0,0,0.00,,---,0.17,VWS V14.01,2013-09-20 23:20:00,
2013-09-20 19:24:00,0.0,0.0,29.93,North,0,0.0,0.0,0,0.00,,---,0.17,VWS V14.01,2013-09-20 23:24:00,
2013-09-20 19:25:00,0.0,0.0,29.94,North,0,0.0,0.0,0,0.00,,---,0.17,VWS V14.01,2013-09-20 23:25:00,
2013-09-20 19:29:00,0.0,0.0,29.93,North,0,0.0,0.0,0,0.00,,---,0.17,VWS V14.01,2013-09-20 23:29:00,
2013-09-20 19:30:00,0.0,0.0,29.94,North,0,0.0,0.0,0,0.00,,---,0.17,VWS V14.01,2013-09-20 23:30:00,
2013-09-20 19:34:00,0.0,0.0,29.93,North,0,0.0,0.0,0,0.00,,---,0.17,VWS V14.01,2013-09-20 23:34:00,
2013-09-20 19:35:00,0.0,0.0,29.94,North,0,0.0,0.0,0,0.00,,---,0.17,VWS V14.01,2013-09-20 23:35:00,
2013-09-20 19:39:00,0.0,0.0,29.93,North,0,0.0,0.0,0,0.00,,---,0.17,VWS V14.01,2013-09-20 23:39:00,
2013-09-20 19:40:00,0.0,0.0,29.94,North,0,0.0,0.0,0,0.00,,---,0.17,VWS V14.01,2013-09-20 23:40:00,
2013-09-20 19:44:00,0.0,0.0,29.93,North,0,0.0,0.0,0,0.00,,---,0.17,VWS V14.01,2013-09-20 23:44:00,
2013-09-20 19:45:00,0.0,0.0,29.94,North,0,0.0,0.0,0,0.00,,---,0.17,VWS V14.01,2013-09-20 23:45:00,
2013-09-20 19:49:00,0.0,0.0,29.93,North,0,0.0,0.0,0,0.00,,---,0.17,VWS V14.01,2013-09-20 23:49:00,
2013-09-20 19:50:00,0.0,0.0,29.94,North,0,0.0,0.0,0,0.00,,---,0.17,VWS V14.01,2013-09-20 23:50:00,
2013-09-20 19:54:00,0.0,0.0,29.93,North,0,0.0,0.0,0,0.00,,---,0.17,VWS V14.01,2013-09-20 23:54:00,
2013-09-20 19:55:00,0.0,0.0,29.94,North,0,0.0,0.0,0,0.00,,---,0.17,VWS V14.01,2013-09-20 23:55:00,
2013-09-20 19:59:00,0.0,0.0,29.93,North,0,0.0,0.0,0,0.00,,---,0.17,VWS V14.01,2013-09-20 23:59:00,
2013-09-20 20:00:00,0.0,0.0,29.94,North,0,0.0,0.0,0,0.00,,---,0.17,VWS V14.01,2013-09-21 00:00:00,
2013-09-20 20:04:00,0.0,0.0,29.94,North,0,0.0,0.0,0,0.00,,---,0.17,VWS V14.01,2013-09-21 00:04:00,
2013-09-20 20:05:00,0.0,0.0,29.94,North,0,0.0,0.0,0,0.00,,---,0.17,VWS V14.01,2013-09-21 00:05:00,
2013-09-20 20:09:00,0.0,0.0,29.94,North,0,0.0,0.0,0,0.00,,---,0.17,VWS V14.01,2013-09-21 00:09:00,
2013-09-20 20:10:00,0.0,0.0,29.94,North,0,0.0,0.0,0,0.00,,---,0.17,VWS V14.01,2013-09-21 00:10:00,
2013-09-20 20:14:00,0.0,0.0,29.94,North,0,0.0,0.0,0,0.00,,---,0.17,VWS V14.01,2013-09-21 00:14:00,
2013-09-20 20:15:00,0.0,0.0,29.93,North,0,0.0,0.0,0,0.00,,---,0.17,VWS V14.01,2013-09-21 00:15:00,
2013-09-20 20:19:00,0.0,0.0,29.94,North,0,0.0,0.0,0,0.00,,---,0.17,VWS V14.01,2013-09-21 00:19:00,
2013-09-20 20:20:00,0.0,0.0,29.93,North,0,0.0,0.0,0,0.00,,---,0.17,VWS V14.01,2013-09-21 00:20:00,
2013-09-20 20:24:00,0.0,0.0,29.94,North,0,0.0,0.0,0,0.00,,---,0.17,VWS V14.01,2013-09-21 00:24:00,
2013-09-20 20:25:00,0.0,0.0,29.93,North,0,0.0,0.0,0,0.00,,---,0.17,VWS V14.01,2013-09-21 00:25:00,
2013-09-20 20:29:00,0.0,0.0,29.94,North,0,0.0,0.0,0,0.00,,---,0.17,VWS V14.01,2013-09-21 00:29:00,
2013-09-20 20:30:00,0.0,0.0,29.93,North,0,0.0,0.0,0,0.00,,---,0.17,VWS V14.01,2013-09-21 00:30:00,
2013-09-20 20:34:00,0.0,0.0,29.94,North,0,0.0,0.0,0,0.00,,---,0.17,VWS V14.01,2013-09-21 00:34:00,
2013-09-20 20:35:00,0.0,0.0,29.93,North,0,0.0,0.0,0,0.00,,---,0.17,VWS V14.01,2013-09-21 00:35:00,
2013-09-20 20:39:00,0.0,0.0,29.94,North,0,0.0,0.0,0,0.00,,---,0.17,VWS V14.01,2013-09-21 00:39:00,
2013-09-20 20:40:00,0.0,0.0,29.93,North,0,0.0,0.0,0,0.00,,---,0.17,VWS V14.01,2013-09-21 00:40:00,
2013-09-20 20:44:00,0.0,0.0,29.94,North,0,0.0,0.0,0,0.00,,---,0.17,VWS V14.01,2013-09-21 00:44:00,
2013-09-20 20:45:00,0.0,0.0,29.93,North,0,0.0,0.0,0,0.00,,---,0.17,VWS V14.01,2013-09-21 00:45:00,
2013-09-20 20:49:00,0.0,0.0,29.94,North,0,0.0,0.0,0,0.00,,---,0.17,VWS V14.01,2013-09-21 00:49:00,
2013-09-20 20:50:00,0.0,0.0,29.93,North,0,0.0,0.0,0,0.00,,---,0.17,VWS V14.01,2013-09-21 00:50:00,
2013-09-20 20:54:00,0.0,0.0,29.94,North,0,0.0,0.0,0,0.00,,---,0.17,VWS V14.01,2013-09-21 00:54:00,
2013-09-20 20:55:00,0.0,0.0,29.93,North,0,0.0,0.0,0,0.00,,---,0.17,VWS V14.01,2013-09-21 00:55:00,
2013-09-20 20:59:00,0.0,0.0,29.94,North,0,0.0,0.0,0,0.00,,---,0.17,VWS V14.01,2013-09-21 00:59:00,
2013-09-20 21:00:00,0.0,0.0,29.94,North,0,0.0,0.0,0,0.00,,---,0.17,VWS V14.01,2013-09-21 01:00:00,
2013-09-20 21:04:00,0.0,0.0,29.94,North,0,0.0,0.0,0,0.00,,---,0.17,VWS V14.01,2013-09-21 01:04:00,
2013-09-20 21:05:00,0.0,0.0,29.94,North,0,0.0,0.0,0,0.00,,---,0.17,VWS V14.01,2013-09-21 01:05:00,
2013-09-20 21:08:00,0.0,0.0,29.94,North,0,0.0,0.0,0,0.00,,---,0.17,VWS V14.01,2013-09-21 01:08:00,
2013-09-20 21:10:00,0.0,0.0,29.94,North,0,0.0,0.0,0,0.00,,---,0.17,VWS V14.01,2013-09-21 01:10:00,
2013-09-20 21:13:00,0.0,0.0,29.94,North,0,0.0,0.0,0,0.00,,---,0.17,VWS V14.01,2013-09-21 01:13:00,
2013-09-20 21:15:00,0.0,0.0,29.94,North,0,0.0,0.0,0,0.00,,---,0.17,VWS V14.01,2013-09-21 01:15:00,
2013-09-20 21:18:00,0.0,0.0,29.94,North,0,0.0,0.0,0,0.00,,---,0.17,VWS V14.01,2013-09-21 01:18:00,
2013-09-20 21:20:00,0.0,0.0,29.94,North,0,0.0,0.0,0,0.00,,---,0.17,VWS V14.01,2013-09-21 01:20:00,
2013-09-20 21:23:00,0.0,0.0,29.94,North,0,0.0,0.0,0,0.00,,---,0.17,VWS V14.01,2013-09-21 01:23:00,
2013-09-20 21:25:00,0.0,0.0,29.94,North,0,0.0,0.0,0,0.00,,---,0.17,VWS V14.01,2013-09-21 01:25:00,
2013-09-20 21:28:00,0.0,0.0,29.94,North,0,0.0,0.0,0,0.00,,---,0.17,VWS V14.01,2013-09-21 01:28:00,
2013-09-20 21:30:00,0.0,0.0,29.94,North,0,0.0,0.0,0,0.00,,---,0.17,VWS V14.01,2013-09-21 01:30:00,
2013-09-20 21:33:00,0.0,0.0,29.94,North,0,0.0,0.0,0,0.00,,---,0.17,VWS V14.01,2013-09-21 01:33:00,
2013-09-20 21:35:00,0.0,0.0,29.94,North,0,0.0,0.0,0,0.00,,---,0.17,VWS V14.01,2013-09-21 01:35:00,
2013-09-20 21:38:00,0.0,0.0,29.94,North,0,0.0,0.0,0,0.00,,---,0.17,VWS V14.01,2013-09-21 01:38:00,
2013-09-20 21:40:00,0.0,0.0,29.94,North,0,0.0,0.0,0,0.00,,---,0.17,VWS V14.01,2013-09-21 01:40:00,
2013-09-20 21:43:00,0.0,0.0,29.94,North,0,0.0,0.0,0,0.00,,---,0.17,VWS V14.01,2013-09-21 01:43:00,
2013-09-20 21:45:00,0.0,0.0,29.94,North,0,0.0,0.0,0,0.00,,---,0.17,VWS V14.01,2013-09-21 01:45:00,
2013-09-20 21:48:00,0.0,0.0,29.94,North,0,0.0,0.0,0,0.00,,---,0.17,VWS V14.01,2013-09-21 01:48:00,
2013-09-20 21:50:00,0.0,0.0,29.94,North,0,0.0,0.0,0,0.00,,---,0.17,VWS V14.01,2013-09-21 01:50:00,
2013-09-20 21:53:00,0.0,0.0,29.94,North,0,0.0,0.0,0,0.00,,---,0.17,VWS V14.01,2013-09-21 01:53:00,
2013-09-20 21:55:00,0.0,0.0,29.94,North,0,0.0,0.0,0,0.00,,---,0.17,VWS V14.01,2013-09-21 01:55:00,
2013-09-20 21:58:00,0.0,0.0,29.94,North,0,0.0,0.0,0,0.00,,---,0.17,VWS V14.01,2013-09-21 01:58:00,
2013-09-20 22:00:00,0.0,0.0,29.94,North,0,0.0,0.0,0,0.00,,---,0.17,VWS V14.01,2013-09-21 02:00:00,
2013-09-20 22:03:00,0.0,0.0,29.94,North,0,0.0,0.0,0,0.00,,---,0.17,VWS V14.01,2013-09-21 02:03:00,
2013-09-20 22:05:00,0.0,0.0,29.94,North,0,0.0,0.0,0,0.00,,---,0.17,VWS V14.01,2013-09-21 02:05:00,
2013-09-20 22:08:00,0.0,0.0,29.94,North,0,0.0,0.0,0,0.00,,---,0.17,VWS V14.01,2013-09-21 02:08:00,
2013-09-20 22:10:00,0.0,0.0,29.94,North,0,0.0,0.0,0,0.00,,---,0.17,VWS V14.01,2013-09-21 02:10:00,
2013-09-20 22:13:00,0.0,0.0,29.94,North,0,0.0,0.0,0,0.00,,---,0.17,VWS V14.01,2013-09-21 02:13:00,
2013-09-20 22:15:00,0.0,0.0,29.94,North,0,0.0,0.0,0,0.00,,---,0.17,VWS V14.01,2013-09-21 02:15:00,
2013-09-20 22:18:00,0.0,0.0,29.93,North,0,0.0,0.0,0,0.00,,---,0.17,VWS V14.01,2013-09-21 02:18:00,
2013-09-20 22:20:00,0.0,0.0,29.94,North,0,0.0,0.0,0,0.00,,---,0.17,VWS V14.01,2013-09-21 02:20:00,
2013-09-20 22:23:00,0.0,0.0,29.93,North,0,0.0,0.0,0,0.00,,---,0.17,VWS V14.01,2013-09-21 02:23:00,
2013-09-20 22:25:00,0.0,0.0,29.94,North,0,0.0,0.0,0,0.00,,---,0.17,VWS V14.01,2013-09-21 02:25:00,
2013-09-20 22:28:00,0.0,0.0,29.93,North,0,0.0,0.0,0,0.00,,---,0.17,VWS V14.01,2013-09-21 02:28:00,
2013-09-20 22:30:00,0.0,0.0,29.94,North,0,0.0,0.0,0,0.00,,---,0.17,VWS V14.01,2013-09-21 02:30:00,
2013-09-20 22:33:00,0.0,0.0,29.92,North,0,0.0,0.0,0,0.00,,---,0.17,VWS V14.01,2013-09-21 02:33:00,
2013-09-20 22:35:00,0.0,0.0,29.94,North,0,0.0,0.0,0,0.00,,---,0.17,VWS V14.01,2013-09-21 02:35:00,
2013-09-20 22:38:00,0.0,0.0,29.92,North,0,0.0,0.0,0,0.00,,---,0.17,VWS V14.01,2013-09-21 02:38:00,
2013-09-20 22:40:00,0.0,0.0,29.94,North,0,0.0,0.0,0,0.00,,---,0.17,VWS V14.01,2013-09-21 02:40:00,
2013-09-20 22:43:00,0.0,0.0,29.92,North,0,0.0,0.0,0,0.00,,---,0.17,VWS V14.01,2013-09-21 02:43:00,
2013-09-20 22:45:00,0.0,0.0,29.94,North,0,0.0,0.0,0,0.00,,---,0.17,VWS V14.01,2013-09-21 02:45:00,
2013-09-20 22:48:00,0.0,0.0,29.92,North,0,0.0,0.0,0,0.00,,---,0.17,VWS V14.01,2013-09-21 02:48:00,
2013-09-20 22:50:00,0.0,0.0,29.94,North,0,0.0,0.0,0,0.00,,---,0.17,VWS V14.01,2013-09-21 02:50:00,
2013-09-20 22:53:00,0.0,0.0,29.92,North,0,0.0,0.0,0,0.00,,---,0.17,VWS V14.01,2013-09-21 02:53:00,
2013-09-20 22:55:00,0.0,0.0,29.94,North,0,0.0,0.0,0,0.00,,---,0.17,VWS V14.01,2013-09-21 02:55:00,
2013-09-20 22:58:00,0.0,0.0,29.92,North,0,0.0,0.0,0,0.00,,---,0.17,VWS V14.01,2013-09-21 02:58:00,
2013-09-20 23:00:00,0.0,0.0,29.94,North,0,0.0,0.0,0,0.00,,---,0.17,VWS V14.01,2013-09-21 03:00:00,
2013-09-20 23:03:00,0.0,0.0,29.92,North,0,0.0,0.0,0,0.00,,---,0.17,VWS V14.01,2013-09-21 03:03:00,
2013-09-20 23:05:00,0.0,0.0,29.94,North,0,0.0,0.0,0,0.00,,---,0.17,VWS V14.01,2013-09-21 03:05:00,
2013-09-20 23:08:00,0.0,0.0,29.92,North,0,0.0,0.0,0,0.00,,---,0.17,VWS V14.01,2013-09-21 03:08:00,
2013-09-20 23:10:00,0.0,0.0,29.94,North,0,0.0,0.0,0,0.00,,---,0.17,VWS V14.01,2013-09-21 03:10:00,
2013-09-20 23:13:00,0.0,0.0,29.92,North,0,0.0,0.0,0,0.00,,---,0.17,VWS V14.01,2013-09-21 03:13:00,
2013-09-20 23:15:00,0.0,0.0,29.93,North,0,0.0,0.0,0,0.00,,---,0.17,VWS V14.01,2013-09-21 03:15:00,
2013-09-20 23:18:00,0.0,0.0,29.92,North,0,0.0,0.0,0,0.00,,---,0.17,VWS V14.01,2013-09-21 03:18:00,
2013-09-20 23:20:00,0.0,0.0,29.93,North,0,0.0,0.0,0,0.00,,---,0.17,VWS V14.01,2013-09-21 03:20:00,
2013-09-20 23:23:00,0.0,0.0,29.92,North,0,0.0,0.0,0,0.00,,---,0.17,VWS V14.01,2013-09-21 03:23:00,
2013-09-20 23:25:00,0.0,0.0,29.93,North,0,0.0,0.0,0,0.00,,---,0.17,VWS V14.01,2013-09-21 03:25:00,
2013-09-20 23:28:00,0.0,0.0,29.92,North,0,0.0,0.0,0,0.00,,---,0.17,VWS V14.01,2013-09-21 03:28:00,
2013-09-20 23:30:00,0.0,0.0,29.92,North,0,0.0,0.0,0,0.00,,---,0.17,VWS V14.01,2013-09-21 03:30:00,
2013-09-20 23:33:00,0.0,0.0,29.92,North,0,0.0,0.0,0,0.00,,---,0.17,VWS V14.01,2013-09-21 03:33:00,
2013-09-20 23:35:00,0.0,0.0,29.92,North,0,0.0,0.0,0,0.00,,---,0.17,VWS V14.01,2013-09-21 03:35:00,
2013-09-20 23:38:00,0.0,0.0,29.92,North,0,0.0,0.0,0,0.00,,---,0.17,VWS V14.01,2013-09-21 03:38:00,
2013-09-20 23:40:00,0.0,0.0,29.92,North,0,0.0,0.0,0,0.00,,---,0.17,VWS V14.01,2013-09-21 03:40:00,
2013-09-20 23:43:00,0.0,0.0,29.92,North,0,0.0,0.0,0,0.00,,---,0.17,VWS V14.01,2013-09-21 03:43:00,
2013-09-20 23:45:00,0.0,0.0,29.92,North,0,0.0,0.0,0,0.00,,---,0.17,VWS V14.01,2013-09-21 03:45:00,
2013-09-20 23:48:00,0.0,0.0,29.92,North,0,0.0,0.0,0,0.00,,---,0.17,VWS V14.01,2013-09-21 03:48:00,
2013-09-20 23:50:00,0.0,0.0,29.92,North,0,0.0,0.0,0,0.00,,---,0.17,VWS V14.01,2013-09-21 03:50:00,
2013-09-20 23:53:00,0.0,0.0,29.92,North,0,0.0,0.0,0,0.00,,---,0.17,VWS V14.01,2013-09-21 03:53:00,
2013-09-20 23:55:00,0.0,0.0,29.92,North,0,0.0,0.0,0,0.00,,---,0.17,VWS V14.01,2013-09-21 03:55:00,
2013-09-20 23:58:00,0.0,0.0,29.92,North,0,0.0,0.0,0,0.00,,---,0.17,VWS V14.01,2013-09-21 03:58:00,